Weather History for KEST - July, 2014

Change the Weather History Date:

Friday, July 18, 2014

  Actual Average Record
Temperature  
Mean Temperature 64 °F 72 °F  
Max Temperature 76 °F 83 °F 101 °F (1957)
Min Temperature 51 °F 61 °F 51 °F (1984)
Degree Days  
Heating Degree Days 1 0  
Month to date heating degree days 25 0  
Since 1 June heating degree days 56 41  
Since 1 July heating degree days 25 0  
Cooling Degree Days 0 7  
Month to date cooling degree days 60 126  
Year to date cooling degree days 223 299  
Since 1 June cooling degree days 174 263  
Growing Degree Days 13 (Base 50)    
Moisture  
Dew Point 57 °F    
Average Humidity 77    
Maximum Humidity 100    
Minimum Humidity 54    
Precipitation  
Precipitation 0.00 in 0.13 in 2.00 in (1963)
Month to date precipitation 0.50 2.44  
Sea Level Pressure  
Sea Level Pressure 30.01 in    
Wind  
Wind Speed 11 mph (South)    
Max Wind Speed 22 mph    
Max Gust Speed 28 mph    
Visibility 9 miles    
Events      
T = Trace of Precipitation, MM = Missing Value Source: NWS Daily Summary

Daily Weather History Graph

Daily Weather History Graph

Search for Another Location

Airport or City:

Trip Planner

Search our weather history database for the weather conditions in past years. The results will help you decide how hot, cold, wet, or windy it might be!

Date:

Astronomy

Jul. 18, 2014 Rise Set
Actual Time 5:54 AM CDT 8:55 PM CDT
Civil Twilight 5:20 AM CDT 9:29 PM CDT
Nautical Twilight 4:37 AM CDT 10:12 PM CDT
Astronomical Twilight 3:45 AM CDT 11:03 PM CDT
Moon 12:03 AM CDT (7/18) 1:26 PM CDT (7/18)
Length of Visible Light 16h 08m
Length of Day
15h 00m
Waning Gibbous, 54% of the Moon is Illuminated
Jul 18
Waning Gibbous
Jul 18
Last Quarter
Jul 26
New
Aug 3
First Quarter
Aug 10
Full

Hourly Weather History & Observations

Time (CDT) Temp. Dew Point Humidity Pressure Visibility Wind Dir Wind Speed Gust Speed Precip Events Conditions
1:52 AM 55.9 °F 54.0 °F 93% 30.04 in 7.0 mi South 5.8 mph - N/A   Clear
2:52 AM 54.0 °F 53.1 °F 97% 30.04 in 6.0 mi South 6.9 mph - N/A   Clear
3:52 AM 53.1 °F 52.0 °F 96% 30.05 in 6.0 mi South 8.1 mph - N/A   Clear
4:52 AM 54.0 °F 52.0 °F 93% 30.04 in 7.0 mi South 5.8 mph - N/A   Clear
5:52 AM 51.1 °F 50.0 °F 96% 30.05 in 6.0 mi South 5.8 mph - N/A   Clear
6:52 AM 55.9 °F 54.0 °F 93% 30.04 in 7.0 mi South 8.1 mph - N/A   Clear
7:52 AM 59.0 °F 55.9 °F 90% 30.04 in 8.0 mi South 10.4 mph - N/A   Clear
8:52 AM 63.0 °F 57.9 °F 84% 30.04 in 10.0 mi South 12.7 mph - N/A   Clear
9:52 AM 64.9 °F 59.0 °F 81% 30.05 in 10.0 mi South 11.5 mph - N/A   Mostly Cloudy
10:52 AM 64.9 °F 57.9 °F 78% 30.04 in 10.0 mi South 6.9 mph - N/A   Overcast
11:52 AM 72.0 °F 59.0 °F 64% 30.04 in 10.0 mi SSW 10.4 mph - N/A   Scattered Clouds
12:52 PM 73.9 °F 57.9 °F 57% 30.03 in 10.0 mi South 19.6 mph 24.2 mph N/A   Clear
2:52 PM 75.9 °F 57.0 °F 52% 30.00 in 10.0 mi South 16.1 mph 26.5 mph N/A   Scattered Clouds
5:52 PM 73.9 °F 57.9 °F 57% 29.97 in 10.0 mi South 18.4 mph 24.2 mph N/A   Mostly Cloudy
6:52 PM 73.9 °F 59.0 °F 59% 29.96 in 10.0 mi South 13.8 mph - N/A   Overcast
7:52 PM 71.1 °F 57.9 °F 63% 29.96 in 10.0 mi South 13.8 mph - N/A   Partly Cloudy
8:52 PM 69.1 °F 57.9 °F 68% 29.96 in 10.0 mi South 9.2 mph - N/A   Overcast
9:52 PM 66.9 °F 59.0 °F 76% 29.97 in 10.0 mi South 9.2 mph - N/A   Mostly Cloudy
10:52 PM 64.0 °F 59.0 °F 84% 29.98 in 10.0 mi South 6.9 mph - N/A   Partly Cloudy
11:52 PM 63.0 °F 60.1 °F 90% 29.97 in 10.0 mi South 8.1 mph - N/A   Partly Cloudy